Regional Weather Roundup
Issued by NWS

Home | Current Version | Previous Version | Graphics & Text | Print | Product List | Glossary On
Versions: 1 2 3 4 5 6 7 8 9 10 11 12 13 14 15 16 17 18 19 20 21 22 23 24 25 26 27 28 29 30 31 32 33 34 35 36 37 38 39 40 41 42 43 44 45 46 47 48 49 50
000
ASUS45 KBOI 291010
RWRID

IDAHO REGIONAL WEATHER ROUNDUP
NATIONAL WEATHER SERVICE BOISE ID
400 AM MDT MON JUN 29 2015

NOTE: "FAIR" INDICATES FEW OR NO CLOUDS BELOW 12000 FEET
WITH NO SIGNIFICANT WEATHER AND/OR OBSTRUCTIONS TO VISIBILITY

IDZ012-014-291100-
SOUTHWEST IDAHO


CITY           SKY/WX    TMP DP  RH WIND       PRES   REMARKS
BOISE          CLOUDY    86  51  29 N9        29.93F
CALDWELL       CLOUDY    79  54  41 NE6       29.92S
MOUNTAIN HOME  CLOUDY    87  49  26 N18       29.92S
$$

IDZ016-017-291100-
SOUTHCENTRAL IDAHO


CITY           SKY/WX    TMP DP  RH WIND       PRES   REMARKS
BURLEY         PTCLDY    65  55  70 CALM      30.03R
JEROME         CLEAR     75  46  35 NE12      30.01S
TWIN FALLS     PTCLDY    76  45  33 S9        29.99F
$$

IDZ019>023-291100-
SOUTHEAST IDAHO


CITY           SKY/WX    TMP DP  RH WIND       PRES   REMARKS
IDAHO FALLS    CLEAR     60  55  83 N6        30.12R
POCATELLO      CLEAR     64  52  64 N6        30.07R
REXBURG        CLEAR     62  54  74 NE7       30.13S
$$

IDZ006-010-011-018-031-032-291100-
CENTRAL IDAHO MOUNTAINS


CITY           SKY/WX    TMP DP  RH WIND       PRES   REMARKS
MCCALL         CLOUDY    74  49  41 E6        30.11F
HAILEY         CLEAR     64  46  52 NW12      30.18S
STANLEY          N/A     53  43  68 CALM      30.29S
SALMON         MOCLDY    64  48  55 SW5       30.06R
CHALLIS        MOCLDY    68  43  40 CALM      30.14R
$$

IDZ002-004-006-007-026-291100-
NORTHERN IDAHO


CITY           SKY/WX    TMP DP  RH WIND       PRES   REMARKS
LEWISTON       CLOUDY    87  54  32 N5        29.82F
LOWELL           N/A     69  61  75 CALM      29.91R
COEUR D`ALENE  CLOUDY    82  57  42 S8        29.91S
MULLAN PASS    CLOUDY    72  40  31 VRB6      30.21R
$$



USA.gov is the U.S. government's official web portal to all federal, state and local government web resources and services.